Terug naar catalogus

STARLINK-35348

ActiefCommunicatieVLEO
NORAD 65904·PAYLOAD·🇺🇸 United States

Gelanceerd Oct 7, 2025 vanaf Cape Canaveral Space Force Station

Loading…

Volgende Passages (komende 24 uur)

TLE

VersSource: CelesTrak SupGP

Epoch: Sep 14, 2026, 21:24 UTC

1 65904C 25224Y   26257.89215278  .00025674  00000+0  75833-3 0  2572
2 65904  53.1577 208.0432 0001309  89.2730 323.1241 15.34386482    16

Volg STARLINK-35348 in realtime met AllMySat

Download on the App Store